• In France
  • List of Countries
  • For 7 days
  • Water Temperature
  • Satellite Maps
  • Weather Map
  • Weather Widgets
  • user-avatar
    Login

    Hourly Weather Naftalan

    Today, 23 October, Tuesday

    Time Temperature Precipitation Wind Pressure Humidity
    00:00 +21°C° 0.1 mm 2 mps 764 mmHg 61%
    01:00 +21°C° 0 mm 3 mps 764 mmHg 56%
    02:00 +20°C° 0 mm 3 mps 764 mmHg 54%
    03:00 +20°C° 0 mm 3 mps 764 mmHg 57%
    04:00 +20°C° 0 mm 2 mps 764 mmHg 59%
    05:00 +19°C° 0 mm 2 mps 764 mmHg 61%
    06:00 +19°C° 0 mm 2 mps 764 mmHg 63%
    07:00 +21°C° 0 mm 2 mps 764 mmHg 57%
    08:00 +23°C° 0 mm 2 mps 765 mmHg 52%
    09:00 +25°C° 0 mm 2 mps 765 mmHg 46%
    10:00 +26°C° 0 mm 2 mps 764 mmHg 43%
    11:00 +27°C° 0 mm 2 mps 764 mmHg 39%
    12:00 +28°C° 0 mm 2 mps 764 mmHg 36%
    13:00 +28°C° 0 mm 3 mps 764 mmHg 37%
    14:00 +28°C° 0 mm 3 mps 763 mmHg 38%
    15:00 +28°C° 0 mm 4 mps 763 mmHg 39%
    16:00 +26°C° 0 mm 4 mps 763 mmHg 49%
    17:00 +23°C° 0 mm 4 mps 763 mmHg 58%
    18:00 +22°C° 0 mm 4 mps 763 mmHg 68%
    19:00 +21°C° 0 mm 4 mps 763 mmHg 70%
    20:00 +21°C° 0 mm 4 mps 764 mmHg 73%
    21:00 +21°C° 0 mm 3 mps 764 mmHg 75%
    22:00 +20°C° 0 mm 3 mps 763 mmHg 76%
    23:00 +20°C° 0 mm 3 mps 763 mmHg 78%

    Tomorrow, 24 October, Wednesday

    Time Temperature Precipitation Wind Pressure Humidity
    00:00 +20°C° 0 mm 3 mps 763 mmHg 79%
    01:00 +20°C° 0 mm 3 mps 763 mmHg 79%
    02:00 +20°C° 0 mm 2 mps 762 mmHg 79%
    03:00 +20°C° 0 mm 2 mps 762 mmHg 79%
    04:00 +20°C° 0 mm 2 mps 762 mmHg 79%
    05:00 +20°C° 0 mm 2 mps 762 mmHg 79%
    06:00 +20°C° 0 mm 2 mps 761 mmHg 79%
    07:00 +21°C° 0 mm 2 mps 761 mmHg 75%
    08:00 +23°C° 0 mm 2 mps 761 mmHg 70%
    09:00 +24°C° 0 mm 2 mps 761 mmHg 65%
    10:00 +25°C° 0 mm 2 mps 760 mmHg 60%
    11:00 +26°C° 0 mm 2 mps 760 mmHg 54%
    12:00 +27°C° 0 mm 3 mps 759 mmHg 49%
    13:00 +27°C° 0 mm 3 mps 758 mmHg 49%
    14:00 +27°C° 0 mm 3 mps 758 mmHg 50%
    15:00 +28°C° 0 mm 3 mps 757 mmHg 50%
    16:00 +26°C° 0 mm 3 mps 757 mmHg 58%
    17:00 +25°C° 0 mm 3 mps 756 mmHg 67%
    18:00 +24°C° 0 mm 2 mps 756 mmHg 75%
    19:00 +23°C° 0 mm 2 mps 756 mmHg 77%
    20:00 +23°C° 0 mm 2 mps 756 mmHg 79%
    21:00 +23°C° 0 mm 2 mps 755 mmHg 81%
    22:00 +21°C° 0 mm 2 mps 755 mmHg 82%
    23:00 +21°C° 0 mm 3 mps 754 mmHg 82%

    Day after tomorrow, 25 October, Thursday

    Time Temperature Precipitation Wind Pressure Humidity
    00:00 +21°C° 0 mm 3 mps 754 mmHg 83%
    01:00 +21°C° 0 mm 3 mps 754 mmHg 79%
    02:00 +20°C° 0 mm 3 mps 753 mmHg 74%
    03:00 +20°C° 0 mm 4 mps 753 mmHg 70%
    04:00 +20°C° 0 mm 3 mps 753 mmHg 65%
    05:00 +20°C° 0 mm 3 mps 753 mmHg 60%
    06:00 +19°C° 0 mm 3 mps 753 mmHg 55%
    07:00 +21°C° 0 mm 3 mps 753 mmHg 47%
    08:00 +24°C° 0 mm 3 mps 753 mmHg 39%
    09:00 +26°C° 0 mm 3 mps 753 mmHg 31%
    10:00 +28°C° 0 mm 3 mps 752 mmHg 29%
    11:00 +29°C° 0 mm 3 mps 752 mmHg 27%
    12:00 +31°C° 0 mm 2 mps 751 mmHg 25%
    13:00 +31°C° 0 mm 3 mps 751 mmHg 26%
    14:00 +31°C° 0 mm 3 mps 750 mmHg 27%
    15:00 +33°C° 0 mm 3 mps 749 mmHg 28%
    16:00 +32°C° 0 mm 5 mps 749 mmHg 31%
    17:00 +29°C° 0 mm 6 mps 749 mmHg 34%
    18:00 +28°C° 0 mm 7 mps 749 mmHg 37%
    19:00 +28°C° 0 mm 7 mps 750 mmHg 34%
    20:00 +28°C° 0 mm 7 mps 750 mmHg 32%
    21:00 +29°C° 0 mm 7 mps 751 mmHg 29%
    22:00 +28°C° 0 mm 7 mps 751 mmHg 31%
    23:00 +28°C° 0 mm 7 mps 752 mmHg 33%

    26 October, Friday

    Time Temperature Precipitation Wind Pressure Humidity
    00:00 +27°C° 0 mm 7 mps 752 mmHg 36%
    01:00 +26°C° 0 mm 7 mps 753 mmHg 43%
    02:00 +24°C° 0 mm 7 mps 753 mmHg 50%
    03:00 +22°C° 0 mm 7 mps 754 mmHg 57%
    04:00 +21°C° 0 mm 8 mps 754 mmHg 61%
    05:00 +19°C° 0 mm 9 mps 755 mmHg 65%
    06:00 +18°C° 0 mm 11 mps 756 mmHg 69%
    07:00 +18°C° 0 mm 10 mps 756 mmHg 66%
    08:00 +18°C° 0 mm 10 mps 757 mmHg 64%
    09:00 +18°C° 0 mm 10 mps 758 mmHg 62%
    10:00 +18°C° 0 mm 10 mps 758 mmHg 62%
    11:00 +18°C° 0 mm 9 mps 758 mmHg 62%
    12:00 +18°C° 0 mm 9 mps 758 mmHg 62%
    13:00 +17°C° 0 mm 9 mps 758 mmHg 63%
    14:00 +17°C° 0 mm 9 mps 758 mmHg 65%
    15:00 +17°C° 0 mm 9 mps 758 mmHg 66%
    16:00 +16°C° 0.1 mm 9 mps 759 mmHg 67%
    17:00 +15°C° 0.1 mm 9 mps 759 mmHg 67%
    18:00 +13°C° 0.1 mm 8 mps 760 mmHg 67%
    19:00 +13°C° 0.3 mm 8 mps 761 mmHg 68%
    20:00 +13°C° 0.3 mm 8 mps 762 mmHg 68%
    21:00 +13°C° 0.3 mm 8 mps 762 mmHg 68%
    22:00 +13°C° 0.1 mm 8 mps 763 mmHg 63%
    23:00 +13°C° 0.1 mm 8 mps 763 mmHg 58%

    27 October, Saturday

    Time Temperature Precipitation Wind Pressure Humidity
    00:00 +13°C° 0.1 mm 8 mps 764 mmHg 53%
    01:00 +13°C° 0 mm 8 mps 764 mmHg 51%
    02:00 +13°C° 0 mm 8 mps 764 mmHg 49%
    03:00 +13°C° 0 mm 8 mps 764 mmHg 46%
    04:00 +13°C° 0 mm 9 mps 765 mmHg 45%
    05:00 +13°C° 0 mm 10 mps 766 mmHg 44%
    06:00 +13°C° 0 mm 11 mps 767 mmHg 43%
    07:00 +14°C° 0 mm 10 mps 768 mmHg 39%
    08:00 +16°C° 0 mm 9 mps 769 mmHg 35%
    09:00 +18°C° 0 mm 8 mps 770 mmHg 30%
    10:00 +20°C° 0 mm 7 mps 770 mmHg 29%
    11:00 +20°C° 0 mm 6 mps 771 mmHg 28%
    12:00 +21°C° 0 mm 5 mps 771 mmHg 27%
    13:00 +21°C° 0 mm 5 mps 771 mmHg 29%
    14:00 +21°C° 0 mm 6 mps 772 mmHg 32%
    15:00 +21°C° 0 mm 6 mps 772 mmHg 35%
    16:00 +19°C° 0 mm 6 mps 772 mmHg 43%
    17:00 +17°C° 0 mm 5 mps 773 mmHg 52%
    18:00 +16°C° 0 mm 5 mps 773 mmHg 61%
    19:00 +17°C° 0 mm 4 mps 774 mmHg 63%
    20:00 +15°C° 0 mm 4 mps 774 mmHg 65%
    21:00 +16°C° 0 mm 3 mps 774 mmHg 68%
    22:00 +16°C° 0 mm 3 mps 774 mmHg 68%
    23:00 +16°C° 0 mm 3 mps 774 mmHg 69%

    28 October, Sunday

    Time Temperature Precipitation Wind Pressure Humidity
    00:00 +16°C° 0 mm 3 mps 774 mmHg 70%
    01:00 +16°C° 0 mm 3 mps 773 mmHg 71%
    02:00 +16°C° 0 mm 2 mps 773 mmHg 71%
    03:00 +16°C° 0 mm 2 mps 773 mmHg 72%
    04:00 +16°C° 0 mm 2 mps 774 mmHg 73%
    05:00 +15°C° 0 mm 2 mps 774 mmHg 73%
    06:00 +14°C° 0 mm 3 mps 774 mmHg 74%
    07:00 +16°C° 0 mm 3 mps 774 mmHg 70%
    08:00 +17°C° 0 mm 3 mps 774 mmHg 67%
    09:00 +18°C° 0 mm 3 mps 774 mmHg 63%
    10:00 +19°C° 0 mm 2 mps 774 mmHg 60%
    11:00 +20°C° 0 mm 2 mps 774 mmHg 57%
    12:00 +21°C° 0 mm 2 mps 773 mmHg 54%
    13:00 +21°C° 0 mm 2 mps 773 mmHg 54%
    14:00 +21°C° 0 mm 3 mps 773 mmHg 54%
    15:00 +21°C° 0 mm 3 mps 772 mmHg 53%
    16:00 +20°C° 0 mm 4 mps 772 mmHg 59%
    17:00 +19°C° 0 mm 4 mps 773 mmHg 64%
    18:00 +18°C° 0 mm 4 mps 773 mmHg 70%
    19:00 +18°C° 0 mm 3 mps 773 mmHg 72%
    20:00 +18°C° 0 mm 3 mps 773 mmHg 74%
    21:00 +17°C° 0 mm 3 mps 773 mmHg 77%
    22:00 +17°C° 0 mm 3 mps 773 mmHg 78%
    23:00 +17°C° 0 mm 2 mps 773 mmHg 80%

    29 October, Monday

    Time Temperature Precipitation Wind Pressure Humidity
    00:00 +16°C° 0 mm 2 mps 772 mmHg 81%
    01:00 +16°C° 0 mm 2 mps 772 mmHg 83%
    02:00 +16°C° 0 mm 2 mps 772 mmHg 85%
    03:00 +15°C° 0 mm 1 mps 772 mmHg 86%
    04:00 +15°C° 0 mm 1 mps 772 mmHg 87%
    05:00 +15°C° 0 mm 2 mps 772 mmHg 87%
    06:00 +15°C° 0 mm 2 mps 772 mmHg 88%
    07:00 +16°C° 0 mm 1 mps 772 mmHg 81%
    08:00 +19°C° 0 mm 1 mps 772 mmHg 75%
    09:00 +20°C° 0 mm 1 mps 772 mmHg 69%
    10:00 +20°C° 0 mm 2 mps 772 mmHg 64%
    11:00 +21°C° 0 mm 2 mps 772 mmHg 60%
    12:00 +24°C° 0 mm 2 mps 771 mmHg 56%
    13:00 +24°C° 0 mm 3 mps 771 mmHg 56%
    14:00 +24°C° 0 mm 3 mps 771 mmHg 56%
    15:00 +23°C° 0 mm 4 mps 770 mmHg 56%
    16:00 +22°C° 0 mm 4 mps 770 mmHg 63%
    17:00 +21°C° 0 mm 4 mps 771 mmHg 69%
    18:00 +19°C° 0 mm 4 mps 771 mmHg 76%
    19:00 +19°C° 0 mm 4 mps 771 mmHg 77%
    20:00 +19°C° 0 mm 4 mps 771 mmHg 78%
    21:00 +18°C° 0 mm 4 mps 771 mmHg 79%
    22:00 +18°C° 0 mm 4 mps 771 mmHg 80%
    23:00 +18°C° 0 mm 3 mps 771 mmHg 82%
    Show more